Location: Fluertsh�userhof
(48.7537°N, 10.3850°E)
Time: 05:42:08
(UTC+00:00)

Cosmos 1072 Rocket - Pass Details

Date: 18 September 2020
Orbit: 949 x 1008 km, 82.9° (Epoch: 29 October)

Event Time Altitude Azimuth Distance (km) Brightness Sun altitude
Rises 18:47:58 0° 185° (S) 3,647 7.4 -14.4°
Reaches altitude 10° 18:50:27 10° 185° (S) 2,712 6.7 -14.7°
Maximum altitude 18:56:40 86° 99° (E) 994 4.5 -15.7°
Drops below altitude 10° 19:03:03 10° 10° (N) 2,772 7.0 -16.7°
Sets 19:05:37 0° 10° (N) 3,733 7.7 -17.1°
